{"data":{"norad_id":59950,"epoch":"2026-05-25T05:13:32.101824Z","epoch_age_seconds":66888,"freshness":"FRESH","line1":"1 59950U 24107F   26145.21773266  .00001839  00000+0  20025-4 0  9997","line2":"2 59950  53.1598 234.1465 0000709  76.9275 283.1822 15.69716808114168","mean_motion":15.69716808,"eccentricity":7.09e-5,"inclination_deg":53.1598,"raan_deg":234.1465,"arg_perigee_deg":76.9275,"mean_anomaly_deg":283.1822,"bstar":2.0025e-5,"rev_number":11416,"period_min":91.736292346562,"perigee_km":359.22955544151,"apogee_km":360.1849817588,"semimajor_km":6737.8442686002,"source":"CELESTRAK","updated_at":"2026-05-25T13:38:19.127933Z"}}